Lid_Strength_Index
1 3 3 5 9 11 13 11 9 10 9 8 7 7 8 8 10 13 2 0 -0 -0 -1 -1 -1 -2 -1 -1 -2 -2 -2 -2 -2 -2 -2 -2 -2 -2 -2 -2 -2 -2 -2 -2 -2 -2 -2 -2 -2
2 3 5 7 12 14 14 11 10 8 7 7 6 6 7 9 5 4 3 0 -0 -0 -1 -1 -1 -2 -2 -2 -2 -2 -2 -2 -2 -2 -2 -2 -2 -2 -2 -2 -2 -2 -2 -2 -2 -2 -2 -2 -2
2 3 8 9 12 13 13 10 9 7 6 7 7 6 7 8 4 3 1 -0 -0 -0 -1 -1 -1 -2 -2 -2 -2 -2 -2 -2 -2 -2 -2 -2 -2 -2 -2 -2 -2 -2 -2 -2 -2 -2 -2 -2 -2
5 6 8 12 13 12 11 9 8 8 7 7 6 8 6 4 3 2 0 1 0 -0 -1 -1 -1 -2 -2 -2 -2 -2 -2 -2 -2 -2 -2 -2 -2 -2 -2 -2 -2 -3 -2 -2 -2 -2 -2 -2 -2
7 7 10 12 12 11 9 7 7 8 8 8 7 9 7 3 2 1 1 0 0 -0 -0 -1 -1 -2 -2 -2 -2 -2 -2 -2 -2 -2 -2 -2 -2 -2 -2 -2 -2 -2 -2 -2 -2 -2 -2 -2 -2
8 8 12 14 12 11 9 7 7 8 8 8 7 8 7 3 3 2 1 1 -0 -0 -0 -1 0 -1 -1 -1 -2 -2 -2 -2 -2 -2 -2 -2 -2 -2 -2 -2 -2 -2 -2 -2 -2 -2 -2 -2 -2
9 10 12 13 12 11 9 8 8 9 9 8 6 9 6 4 2 1 1 1 -0 -0 -0 -0 -0 -0 0 -0 -1 -1 -2 -2 -2 -2 -2 -2 -2 -2 -2 -2 -2 -2 -2 -2 -2 -2 -2 -2 -2
8 9 12 12 12 12 9 9 9 8 8 6 5 9 9 4 2 2 1 1 1 0 0 0 0 -0 0 0 1 -0 -1 -1 -2 -2 -1 -1 -2 -2 -1 -0 -2 -2 -2 -2 -2 -2 -2 -2 -2
7 11 12 11 12 11 9 10 8 7 7 6 5 5 4 2 2 3 2 2 1 1 0 0 0 0 -0 0 1 1 -0 -1 -1 -1 -0 0 -0 -0 -0 -1 -1 -2 -2 -2 -1 -1 -2 -2 -1
10 11 10 9 10 10 9 9 9 8 8 9 6 4 3 3 3 4 3 3 2 2 1 1 1 0 -0 -1 0 0 0 -0 -0 -0 0 -0 0 0 -0 0 -1 -1 -2 -2 -2 -1 -2 -0 1
10 11 9 9 9 8 9 9 9 8 10 8 7 6 4 4 4 4 4 3 2 1 1 0 0 1 1 0 0 0 0 1 0 0 1 1 0 1 0 1 1 1 1 0 -0 1 1 1 1
11 9 9 8 8 8 8 8 9 9 9 6 5 4 4 4 4 4 4 3 2 2 1 1 0 0 1 1 1 0 0 1 1 1 1 1 1 1 1 1 1 1 2 1 1 1 1 1 1
10 10 8 9 9 8 8 9 9 9 9 5 4 4 4 4 4 4 3 3 2 2 1 1 0 0 0 1 1 1 1 1 1 1 1 1 1 1 1 1 1 1 1 1 2 2 1 1 1
9 8 9 9 10 9 9 11 10 9 9 5 5 5 4 4 4 4 4 3 3 2 2 1 1 0 1 0 1 0 0 1 1 1 1 1 1 1 1 2 2 2 2 2 2 2 2 2 2
9 10 11 10 10 10 9 11 11 9 9 9 7 6 5 5 4 4 3 4 3 2 2 1 1 1 0 1 1 1 0 -0 0 1 1 1 1 2 2 2 2 2 2 2 3 3 2 3 2
10 12 13 11 10 10 11 14 10 9 10 10 9 9 7 5 5 5 4 4 3 3 2 1 1 1 0 0 0 1 1 1 1 0 0 1 1 1 2 2 2 2 2 2 3 3 3 3 3
12 16 15 13 10 11 13 14 11 10 10 11 11 10 8 7 6 5 4 4 3 3 2 2 2 2 1 0 -0 -0 -0 1 1 0 0 0 0 1 2 2 3 3 3 3 3 3 3 4 3
16 15 14 14 12 12 13 14 12 10 11 12 12 11 9 7 6 5 4 3 3 3 2 2 2 2 2 0 0 0 0 -0 -0 -0 -0 -0 -0 -0 1 2 2 3 3 2 4 3 2 3 3
13 13 14 14 12 12 13 13 12 11 12 12 13 12 10 9 7 5 4 4 3 3 2 2 2 2 2 1 1 1 1 0 0 -0 -0 -0 -0 1 1 1 2 2 2 3 3 3 3 4 4
13 13 15 13 12 13 13 13 12 12 12 11 11 12 11 10 10 9 8 8 4 4 3 2 1 2 2 1 0 0 1 0 0 0 0 0 1 1 0 1 1 1 2 3 3 4 4 4 5
13 14 15 14 13 13 14 16 13 11 12 11 11 11 11 10 10 10 9 9 10 10 7 4 3 1 2 2 2 1 1 1 1 2 1 1 1 0 1 1 1 1 2 3 3 3 3 4 4
14 12 12 13 15 17 15 19 15 14 13 12 12 12 11 10 9 9 9 9 9 8 9 9 5 2 2 2 2 2 2 2 2 1 1 1 0 0 0 1 1 1 1 2 2 2 3 3 4
13 11 12 13 14 16 17 18 17 14 14 14 13 12 11 10 9 8 7 6 6 6 8 8 7 4 2 2 2 2 2 2 1 1 1 1 1 0 0 1 1 1 1 1 2 2 2 2 3
11 11 12 13 15 19 17 18 19 16 14 14 13 11 10 10 9 8 6 5 6 7 9 8 4 4 3 2 1 2 2 2 2 2 2 2 2 2 2 1 1 1 0 0 0 1 1 1 1
11 14 19 19 20 20 18 19 17 14 13 12 11 11 10 9 9 8 7 6 6 6 6 5 4 5 5 4 3 2 2 2 2 3 2 2 3 5 5 4 5 5 5 4 4 4 4 4 4
14 15 19 21 22 20 18 19 16 14 12 11 10 10 10 10 9 9 9 8 7 6 6 5 4 5 5 5 6 3 3 3 5 5 6 7 7 7 7 7 7 6 6 6 6 6 6 6 6
14 15 14 18 24 20 19 18 14 14 13 11 11 11 11 10 10 9 9 9 9 9 8 7 7 7 8 8 7 7 6 7 8 8 8 8 8 8 8 8 9 8 8 8 8 8 8 8 8
13 12 16 18 23 23 21 20 17 16 14 12 11 11 11 10 10 10 10 10 10 9 9 9 9 9 9 9 8 9 9 9 9 9 10 10 10 9 10 10 10 10 10 9 9 10 9 10 10
14 16 15 15 17 21 22 19 15 14 14 12 12 11 10 10 10 10 10 10 10 10 10 10 9 9 10 10 10 10 10 10 10 11 11 10 10 10 11 11 11 11 11 10 11 11 11 11 11
14 14 14 17 18 18 19 18 14 14 13 11 11 10 10 10 10 10 10 10 10 11 11 11 11 10 10 10 11 11 11 11 11 12 11 11 12 12 12 12 12 11 11 12 12 12 11 11 11